Weather in Glushkovo

Russia / Vologda Oblast     60°01′44″N   37°55′20″E
temp.,
°C
wind,
m/s
gust,
m/s
humid.,
%
clouds,
%
prec.,
mm/h
press.,
hPa
HPBL,
m
24 may, tue
tue2400:00+1nnw51198100 1.4 1005600
03:000nnw51098100 3.0 1005849
06:000nnw5996100 0.6 1006787
09:00+2n5882100 1.0 10061070
12:00+3n5775100 0.2 10091225
15:00+4n4675100 0.3 10111039
18:00+3n3682100 0.1 1012779
21:00+3nnw368898 0.1 1014335
25 may, wed
wed2500:000nne259516 0.0 1015122
03:00−1nnw229543 0.0 101640
06:00+2nnw248266 0.0 1016200
09:00+6nw336584 0.0 1015729
12:00+8nw3355100 0.0 10151196
15:00+8nw446294 0.0 10141166
18:00+7nw457193 0.0 1014700
21:00+3nw259337 0.1 1013106
26 may, thu
thu2600:00+2nnw229576 0.0 101344
03:00+3nnw2390100 0.0 101282
06:00+5nw2377100 0.0 1010152
09:00+7nnw225794 0.0 10091210
12:00+10nnw224893 0.0 10071283
15:00+11nnw224696 0.0 10051553
18:00+11ene225385 0.0 10031056
21:00+6e3675100 0.0 1002134
27 may, fri
fri2700:00+4ese2786100 0.0 1000153
03:00+3se2691100 0.0 998137
06:00+6ese2478100 0.0 997187
09:00+10se2363100 0.0 996948
12:00+13s2350100 0.0 9961638
15:00+10sw2477100 0.1 997417
18:00+9se388945 0.7 997349
21:00+9s3796100 1.1 997273
28 may, sat
sat2800:00+7s269982 0.3 998131
03:00+6sse229897 0.3 99727
06:00+8se2495100 0.1 996155
09:00+12se3476100 0.1 994808
12:00+12ese3481100 2.6 993677
15:00+9sw4896100 6.9 993522
18:00+7wsw61396100 1.8 995757
21:00+7w51195100 3.6 997955